Dewpoint
31 26 25 23 21 19 17 16 16 17 17 17 19 20 25 27 30 35 38 42 44 46 55 61 61 64 65 68 72 74 74 77 74 74 72 71 70 70 69 71 74 75 74 75
24 24 23 20 18 17 17 17 18 18 18 17 18 18 24 27 30 35 38 44 47 51 61 62 63 64 66 68 72 74 75 76 74 74 74 73 72 70 70 70 74 74 74 74
18 19 19 18 17 18 19 18 20 19 19 18 19 20 25 28 31 36 41 47 51 55 58 61 63 65 65 69 71 73 75 76 76 76 75 75 76 74 71 71 69 72 73 73
18 18 17 18 20 20 21 22 20 17 17 16 20 20 31 28 31 35 41 45 48 53 58 61 63 65 65 68 70 74 75 76 76 76 75 74 72 72 71 72 70 71 71 73
21 19 18 19 21 22 23 23 22 20 19 19 18 16 28 29 28 29 38 42 45 51 51 55 59 62 64 66 68 72 76 77 77 76 75 74 73 72 72 70 76 76 72 72
19 19 18 17 22 21 22 21 23 23 22 21 23 18 26 28 31 33 38 40 43 46 53 56 58 60 61 60 61 64 75 77 77 77 76 76 75 73 71 69 71 72 74 73
21 19 17 19 19 22 24 23 21 21 21 24 27 22 32 33 35 36 38 39 41 43 50 55 56 58 60 60 62 63 72 75 76 77 77 77 76 76 75 74 73 72 67 70
19 19 19 22 21 24 26 22 21 23 19 21 23 21 31 36 37 38 38 37 38 40 45 47 51 56 56 57 60 64 70 73 74 73 76 77 77 75 75 74 73 73 73 66
22 22 23 23 22 22 23 25 24 24 23 17 19 30 35 35 36 36 35 37 40 44 46 48 48 52 56 59 61 62 69 72 73 73 74 76 76 77 75 75 76 74 74 70
25 26 24 23 23 23 22 23 22 22 27 25 21 24 32 37 35 36 36 37 43 44 42 47 50 54 56 58 62 63 65 70 71 70 73 72 74 76 76 77 76 75 74 74
24 24 25 26 25 24 23 26 28 24 26 24 20 24 38 35 36 37 36 36 41 45 47 49 50 53 59 56 59 63 64 68 70 71 71 73 73 73 75 75 76 76 76 75
28 23 25 24 25 27 27 27 27 24 28 27 27 26 29 34 33 33 33 39 41 46 49 52 54 55 56 60 61 61 65 66 69 70 71 70 71 71 71 73 74 75 75 75
31 27 25 26 21 23 26 28 30 29 30 31 26 25 27 31 31 35 33 35 48 51 50 52 57 57 59 60 62 63 65 65 67 67 67 68 69 69 70 70 72 75 74 74
40 30 29 19 24 26 28 28 29 28 27 26 24 27 30 30 31 40 41 45 48 52 52 54 58 60 61 63 64 64 66 65 67 68 68 69 70 69 69 70 71 72 74 74
29 30 27 26 26 24 23 22 22 22 24 23 24 24 29 36 41 43 44 45 46 51 51 54 55 59 61 62 62 64 65 67 68 68 68 68 69 69 70 71 71 71 72 73
33 35 32 29 27 24 22 21 21 20 20 21 22 24 29 40 42 45 46 46 49 50 49 53 54 56 58 61 62 63 65 67 68 67 67 68 68 69 69 69 70 70 71 72
37 35 34 31 30 27 24 23 21 22 22 22 22 27 31 42 44 44 44 45 47 48 49 54 56 57 59 60 62 64 66 67 66 67 67 68 68 68 69 69 69 69 70 72
36 43 37 30 32 26 26 23 22 22 25 26 29 32 36 42 42 41 50 49 50 50 53 55 56 59 60 61 63 66 66 66 64 66 66 67 67 67 68 68 69 69 68 70
29 34 31 29 27 28 22 23 32 33 30 36 36 36 36 41 41 44 48 48 51 53 55 58 59 60 63 62 66 65 65 65 63 63 64 65 65 66 67 67 68 69 69 68
30 43 32 31 29 27 33 28 39 37 33 43 44 45 44 45 41 43 54 51 53 55 59 58 59 60 60 64 65 66 64 62 61 62 64 64 64 65 65 67 68 68 69 68
33 35 32 31 30 29 31 31 41 35 40 47 46 47 46 44 48 51 51 51 53 55 57 59 60 59 62 64 65 64 64 62 62 64 64 63 65 65 67 68 69 69 68 69
31 36 33 36 34 31 43 40 40 51 46 43 44 45 49 49 50 51 51 53 54 55 57 59 59 61 64 65 65 64 63 64 63 63 62 61 63 65 65 67 68 68 67 66
27 33 32 36 33 47 42 45 47 46 46 44 46 45 46 48 50 53 53 52 54 56 57 60 59 62 64 64 64 62 62 62 62 61 60 61 62 64 66 66 66 67 67 64
33 40 36 42 40 41 42 38 44 49 46 46 45 46 47 48 52 51 54 54 56 57 58 58 59 61 63 63 63 61 61 61 60 59 60 61 61 63 65 67 65 64 63 64
28 39 38 39 43 46 43 43 44 44 45 44 45 45 44 52 54 57 55 56 58 58 59 60 62 62 62 61 62 61 60 60 60 59 58 60 59 63 64 60 57 60 55 54
29 33 30 31 43 44 42 43 41 42 42 45 45 46 50 51 52 52 54 56 57 56 58 59 60 61 61 61 60 61 61 61 60 59 59 60 56 56 59 61 57 49 49 46
Lifted_Index
4 3 2 1 1 2 2 1 0 0 2 2 1 1 2 2 2 2 1 0 -1 -2 -4 -6 -6 -7 -7 -8 -8 -9 -9 -9 -9 -8 -8 -8 -7 -7 -7 -6 -7 -8 -8 -8
3 3 2 2 2 2 2 1 0 0 1 2 1 1 2 2 2 2 1 0 -1 -3 -4 -6 -6 -7 -7 -8 -8 -9 -9 -10 -9 -9 -9 -8 -8 -7 -7 -7 -7 -7 -8 -8
2 2 2 3 3 2 2 1 0 0 1 1 0 0 1 2 2 2 1 0 -1 -3 -4 -6 -6 -7 -7 -8 -9 -9 -10 -10 -10 -10 -9 -9 -8 -8 -8 -7 -7 -7 -7 -7
2 2 3 3 2 2 1 1 1 1 1 0 -0 -0 0 1 1 1 1 1 -0 -2 -3 -5 -6 -6 -7 -8 -9 -9 -10 -10 -10 -10 -10 -9 -9 -8 -8 -8 -7 -7 -7 -7
2 2 3 3 3 3 2 2 2 2 1 0 -0 -1 -0 -0 -0 -0 -0 0 0 -1 -2 -3 -4 -5 -6 -7 -8 -9 -10 -11 -11 -10 -10 -10 -9 -9 -8 -8 -8 -8 -8 -8
2 2 3 3 3 3 3 3 2 1 1 -0 -1 -1 -0 -0 -0 -0 -1 -0 0 -0 -1 -2 -3 -4 -4 -5 -5 -7 -9 -11 -11 -11 -11 -10 -10 -9 -8 -8 -8 -8 -7 -7
1 1 2 3 3 3 3 2 1 0 -0 -1 -1 -1 -0 0 0 0 -0 -0 0 0 -0 -1 -2 -2 -3 -3 -4 -5 -7 -9 -11 -11 -11 -11 -11 -10 -9 -9 -9 -8 -7 -7
-0 0 1 2 3 3 2 2 1 0 -0 -1 -1 -1 -0 0 0 0 0 0 0 0 0 0 -1 -1 -2 -2 -3 -4 -5 -7 -9 -10 -11 -12 -12 -11 -11 -10 -9 -9 -8 -7
0 0 1 2 3 3 2 2 2 1 0 -0 -0 -0 -0 0 0 1 1 1 1 1 1 0 -0 -1 -1 -2 -2 -3 -4 -6 -7 -8 -10 -11 -11 -11 -11 -11 -10 -10 -9 -8
2 1 1 1 3 3 3 2 2 1 0 -0 -1 -0 -0 -0 -0 0 1 1 2 2 1 1 -0 -0 -1 -1 -2 -3 -3 -5 -6 -7 -8 -9 -10 -11 -11 -11 -11 -10 -10 -9
3 2 1 1 2 2 2 2 2 1 0 -0 -0 -0 -0 -0 0 1 1 2 2 2 1 1 0 -0 -1 -1 -2 -2 -3 -4 -5 -6 -7 -8 -9 -9 -10 -11 -11 -11 -10 -10
3 3 2 2 1 1 1 2 2 2 1 1 0 0 0 0 1 1 2 2 2 1 1 0 0 -0 -0 -1 -2 -3 -3 -4 -5 -6 -7 -7 -8 -8 -8 -9 -10 -10 -10 -10
4 3 3 2 1 1 1 1 2 3 2 2 1 1 0 0 1 1 2 3 2 1 1 0 0 -0 -1 -1 -2 -3 -4 -5 -5 -6 -6 -7 -7 -7 -7 -7 -8 -9 -9 -9
4 4 4 3 2 2 2 1 2 2 3 3 2 1 1 1 1 2 2 2 1 1 1 1 0 -0 -1 -2 -2 -3 -4 -5 -6 -6 -6 -6 -6 -6 -6 -6 -7 -8 -8 -9
4 4 4 4 3 3 3 3 3 3 3 3 3 2 2 1 1 2 2 1 1 1 1 1 0 -0 -1 -2 -2 -4 -5 -6 -6 -6 -6 -6 -6 -6 -6 -6 -6 -7 -8 -8
4 4 4 4 3 3 4 4 4 3 3 3 3 3 2 1 1 2 1 1 1 1 1 1 1 0 -1 -1 -3 -4 -5 -5 -6 -6 -6 -6 -6 -6 -6 -6 -6 -6 -6 -7
3 3 3 3 3 3 4 4 4 3 3 4 3 3 1 1 1 1 1 1 1 1 1 1 0 -0 -1 -2 -3 -4 -5 -5 -5 -5 -5 -5 -5 -5 -5 -5 -5 -5 -5 -5
3 3 3 3 3 3 3 3 3 3 3 3 3 2 1 1 1 1 1 1 1 1 0 -0 -0 -1 -2 -3 -4 -4 -5 -4 -4 -4 -4 -5 -5 -5 -5 -5 -5 -5 -4 -4
3 3 3 3 3 3 3 2 1 1 2 2 2 2 1 1 1 1 1 1 1 1 0 -1 -1 -2 -3 -4 -4 -5 -4 -4 -3 -3 -3 -4 -4 -4 -4 -5 -5 -4 -4 -3
2 2 3 3 3 2 2 1 0 0 0 0 0 0 0 0 0 0 0 0 0 -0 -1 -1 -2 -3 -3 -4 -5 -5 -4 -3 -2 -2 -2 -2 -2 -3 -3 -4 -4 -4 -4 -3
0 1 1 1 1 1 1 -0 -1 -1 -1 -1 -1 -0 -0 -0 -0 -0 -0 -0 -0 -1 -2 -2 -3 -3 -4 -4 -5 -4 -4 -3 -2 -1 -1 -1 -1 -2 -3 -3 -4 -4 -3 -3
-1 -1 -1 -0 -0 -0 -1 -2 -2 -2 -1 -1 -1 -0 -0 -1 -1 -0 -0 -0 -1 -2 -2 -3 -3 -4 -4 -4 -4 -4 -3 -2 -1 -0 0 0 -0 -2 -2 -3 -3 -3 -3 -2
-0 -0 -1 -1 -1 -1 -1 -2 -2 -1 -1 -1 -0 -0 -1 -1 -1 -1 -1 -1 -2 -2 -3 -3 -3 -4 -4 -4 -3 -3 -2 -1 -0 1 1 1 0 -1 -2 -2 -2 -2 -2 -2
0 -0 -0 -0 -1 -1 -1 -1 -1 -1 -0 -0 -0 -0 -1 -1 -1 -1 -1 -2 -2 -3 -3 -3 -3 -4 -4 -3 -2 -2 -1 0 1 1 1 1 0 -0 -1 -1 -1 -1 -1 -1
1 0 0 0 -0 -1 -0 -0 0 -0 -0 -0 -1 -0 -1 -1 -1 -1 -2 -2 -3 -3 -3 -3 -3 -3 -3 -3 -2 -1 0 1 2 2 2 1 0 -0 -1 -0 -0 -0 0 -0
1 1 1 1 0 0 1 1 1 0 -0 -1 -1 -1 -1 -2 -1 -2 -2 -3 -3 -3 -3 -3 -3 -3 -3 -2 -1 -0 0 1 2 2 2 1 0 -0 -1 -1 0 1 1 1